Wind_Speed
24 24 24 24 24 24 24 24 24 25 25 26 27 28 28 28 28 28 29 30 30 29 29 30 29 29 31 31 30 30 30 29 28 28 29 30 28 27 27 26 25 23 21 20 19 19 20 22 22 23 22 21 20 20 22 23 23 24 23 22 21 19 17
24 24 24 24 24 23 23 24 24 24 25 26 27 27 28 28 28 28 29 30 30 29 30 30 29 30 31 31 31 31 30 30 29 28 29 30 30 28 27 26 25 24 23 21 20 19 21 23 23 23 23 22 21 22 23 24 25 25 24 23 22 21 19
25 25 25 24 24 24 23 23 23 24 25 26 26 26 27 27 28 28 28 29 29 29 30 30 30 31 32 32 31 32 31 30 30 29 28 30 30 29 28 26 25 25 24 22 20 21 22 23 23 24 24 23 23 24 24 24 26 27 26 25 24 22 21
26 26 26 26 25 25 24 24 24 24 24 25 26 26 27 27 27 27 27 28 29 29 30 30 31 32 33 34 32 32 33 32 31 30 28 29 30 30 29 28 27 26 25 22 21 22 22 21 23 26 28 27 26 25 24 24 27 28 26 25 24 24 23
28 28 28 28 28 27 27 26 25 25 25 25 26 26 27 27 27 27 27 27 28 28 29 29 31 32 34 35 35 34 34 33 32 31 30 29 30 30 30 29 29 27 25 23 22 23 22 22 24 26 29 30 28 26 24 24 27 28 26 25 25 24 23
30 30 30 30 30 30 29 28 27 27 26 26 26 27 27 27 27 26 27 27 27 27 28 28 29 31 33 35 36 35 36 36 34 33 31 30 30 31 31 29 29 28 26 24 23 22 21 22 23 24 27 29 28 27 25 25 27 27 26 25 24 23 23
31 31 32 32 32 32 31 31 29 29 29 28 28 28 29 28 27 26 27 27 28 28 29 29 29 30 33 35 35 35 36 37 35 32 31 31 30 31 32 31 29 27 26 24 23 22 21 21 20 21 24 26 26 26 26 25 26 26 24 23 23 22 22
31 32 33 33 34 34 33 33 32 31 31 30 30 30 30 29 27 27 28 29 29 30 30 30 31 32 34 36 36 35 36 36 34 32 31 31 30 31 33 32 30 27 25 24 23 21 20 20 19 19 21 22 22 23 23 24 23 22 21 21 20 20 21
31 32 34 35 35 35 35 35 34 33 33 32 32 31 30 30 28 28 29 30 30 31 31 32 32 33 35 36 36 36 37 36 34 30 30 31 30 31 32 32 30 26 25 25 24 22 20 20 19 19 19 19 18 18 19 20 20 20 20 19 18 19 20
32 33 34 36 36 37 37 36 35 34 34 34 33 32 31 30 29 29 30 31 31 32 33 33 34 34 35 36 37 37 38 36 33 30 29 31 31 32 32 31 29 27 26 26 25 24 22 21 20 20 19 18 17 17 18 19 19 19 19 18 18 19 20
32 33 35 36 37 38 38 38 37 36 35 35 35 34 33 31 31 31 31 32 32 33 33 34 35 36 36 37 37 39 39 36 33 30 29 31 32 32 32 32 30 28 27 27 27 26 24 22 22 21 20 19 19 18 18 19 19 19 18 18 18 19 20
34 35 36 37 38 39 39 39 38 37 37 36 36 35 34 33 33 33 33 33 33 33 34 35 36 37 37 38 39 39 39 35 31 29 28 29 31 32 32 32 31 29 28 28 27 27 25 24 24 23 21 21 20 20 20 19 20 20 19 18 18 20 20
35 36 36 38 39 40 40 40 39 39 38 37 37 36 36 36 35 35 35 35 34 34 34 35 37 37 38 39 40 40 39 34 30 28 28 29 31 32 32 31 30 29 29 28 27 26 26 26 26 25 24 22 22 22 21 20 20 21 21 21 20 20 21
36 37 37 39 40 41 41 40 40 39 39 38 38 37 37 37 37 37 36 36 35 34 35 36 37 38 39 39 40 40 39 35 30 27 27 29 29 30 31 30 29 28 28 27 26 26 27 27 26 25 24 24 24 24 22 21 22 22 22 23 22 22 22
37 38 38 40 41 41 41 40 40 40 40 40 39 39 39 39 39 38 38 37 36 35 36 36 38 39 39 39 39 39 38 35 31 27 26 28 28 28 29 29 28 28 27 27 26 26 27 27 26 26 26 25 24 24 23 23 23 22 23 23 23 23 23
38 38 39 40 41 41 41 40 40 40 40 41 40 40 40 40 40 40 39 38 37 36 36 36 38 39 39 39 39 38 36 33 30 28 27 28 28 28 28 29 28 29 28 28 28 27 26 26 26 27 26 24 24 25 24 24 23 23 23 24 24 24 22
39 39 40 41 41 41 41 41 40 41 41 41 41 41 42 42 42 41 40 39 38 37 37 36 37 38 38 38 38 38 37 32 29 29 29 29 28 29 30 30 30 29 29 29 29 27 26 26 27 27 26 24 24 24 24 24 24 25 25 25 25 23 22
39 40 40 41 41 41 41 41 41 41 41 42 42 42 42 43 43 42 41 41 40 39 38 36 36 37 37 38 38 38 37 33 29 28 28 29 29 28 29 30 30 30 29 28 28 27 27 28 29 28 25 24 24 25 26 26 26 26 27 26 25 23 23
40 40 41 41 41 41 41 41 41 41 41 42 42 42 43 43 44 44 43 43 42 41 40 38 36 37 38 38 38 38 37 34 31 28 28 29 28 29 29 29 29 30 30 28 28 28 29 29 29 26 23 24 26 26 26 26 26 26 26 25 25 24 24
41 41 41 41 41 42 42 42 42 42 42 43 43 43 44 45 46 46 45 45 44 43 42 39 37 37 38 38 38 37 37 35 31 29 28 27 28 29 30 28 28 29 30 30 30 31 30 30 28 25 23 25 27 26 25 26 26 26 25 24 24 24 24
40 41 41 41 41 42 42 42 43 43 44 44 45 45 46 47 48 48 48 47 45 44 42 40 38 37 38 39 38 37 36 34 31 29 28 27 27 29 30 29 29 30 30 31 32 32 31 30 28 25 25 27 27 26 26 26 25 25 25 23 24 24 24
40 40 40 40 41 41 42 43 43 44 45 46 46 47 47 47 47 48 48 47 46 44 43 41 39 37 37 38 38 37 36 33 30 27 27 27 28 29 30 30 30 31 31 32 32 32 31 29 28 27 26 26 26 26 26 26 25 25 25 24 24 25 24
40 40 40 40 41 41 42 43 43 44 45 46 46 46 46 46 46 46 47 47 46 45 44 42 40 37 36 37 37 36 35 33 30 26 25 25 26 28 29 29 30 31 33 33 31 31 31 29 28 28 26 25 26 27 26 26 25 25 25 25 25 25 24
41 41 41 42 42 42 43 43 43 44 45 45 46 46 46 46 47 47 48 47 47 46 45 43 41 38 36 36 36 36 34 32 30 27 25 25 25 26 27 29 30 31 32 32 31 30 31 31 30 29 28 26 27 27 26 26 26 26 26 26 25 25 24
42 42 42 42 43 43 43 44 44 45 45 46 46 47 47 47 48 48 49 49 48 48 46 44 43 40 37 35 36 36 34 32 30 28 27 26 25 26 27 28 28 29 31 31 30 30 31 32 31 30 28 27 27 27 26 26 27 28 28 27 26 25 26
43 43 43 43 43 44 44 44 45 46 47 47 48 48 49 49 49 50 50 51 50 49 48 46 44 41 38 36 36 37 35 33 30 29 27 26 26 27 28 28 27 29 31 32 32 31 32 33 33 31 29 28 28 28 28 29 30 29 29 29 28 27 28
44 44 45 45 45 45 46 46 47 48 49 49 49 50 51 51 51 52 52 53 52 51 50 48 45 43 39 36 35 36 37 34 31 30 28 27 26 27 28 29 29 29 30 32 33 33 33 33 32 31 31 30 29 29 30 31 30 30 30 31 30 29 29
44 44 45 45 46 47 47 48 48 49 50 51 51 52 52 53 53 53 54 54 54 53 51 49 47 44 42 38 35 35 37 36 33 31 29 28 27 28 28 29 31 30 30 31 33 33 34 34 32 31 32 32 33 32 31 30 29 30 31 32 30 30 29
44 44 45 46 46 47 48 49 49 50 51 52 52 53 53 54 54 54 54 54 54 54 53 51 49 46 43 41 37 35 36 37 35 32 31 29 28 29 30 30 31 32 31 32 33 34 34 33 32 31 31 32 34 34 31 29 29 29 30 29 28 28 28
45 46 47 47 48 49 50 51 51 52 52 53 54 54 54 55 55 55 55 55 55 55 54 53 51 49 45 43 39 37 37 38 37 34 32 31 29 30 31 32 32 33 33 34 35 36 35 33 32 31 30 31 32 32 31 30 30 30 29 28 27 27 27
46 47 48 49 50 51 52 53 54 54 55 56 56 57 57 58 58 57 57 57 57 56 56 55 54 52 49 46 43 39 37 38 39 37 34 33 31 30 31 32 33 34 34 36 37 37 36 34 33 32 31 31 32 32 32 32 31 31 30 29 29 29 29
45 46 47 48 49 50 51 52 54 55 56 57 57 58 58 59 60 60 60 60 60 59 59 58 56 54 52 49 46 43 40 40 40 40 37 35 33 32 31 31 32 34 35 36 38 39 38 36 36 35 33 32 31 31 31 31 31 31 30 29 30 29 29
43 44 45 46 47 49 50 52 53 54 55 57 57 58 59 59 59 60 61 61 61 61 61 60 59 57 54 50 47 45 43 42 42 42 40 37 36 35 33 32 32 33 33 35 37 40 40 39 38 38 35 33 31 29 28 29 30 31 30 30 31 30 30
40 41 43 44 45 46 48 49 51 52 54 55 57 58 59 60 60 60 60 61 61 60 60 60 59 58 55 52 48 45 44 44 44 44 43 41 38 37 36 34 33 33 32 33 34 38 40 40 40 39 38 36 34 31 29 29 30 31 31 32 33 32 32
37 38 39 40 41 42 44 45 47 48 50 51 53 54 56 57 59 59 60 61 61 61 60 60 59 58 56 53 49 45 43 43 44 45 45 44 41 39 38 37 35 34 33 32 32 34 37 39 39 39 39 39 37 35 33 33 33 33 33 34 35 35 35
34 34 35 36 37 38 39 40 42 43 44 46 47 49 50 51 53 55 56 58 59 60 60 60 59 58 56 53 50 46 43 42 43 45 46 46 45 42 41 40 38 36 35 34 33 32 33 35 37 39 39 38 38 38 38 37 35 35 36 36 37 37 38
30 31 33 34 35 36 37 38 39 40 41 42 43 43 44 45 46 48 49 51 52 54 56 57 58 58 57 54 51 47 43 41 42 44 45 47 47 45 43 42 41 39 38 37 36 34 33 32 34 37 39 38 37 36 38 38 38 39 40 39 38 38 39
Wind_Direction
299 296 294 293 292 292 292 292 293 293 293 294 295 297 299 300 302 303 303 302 303 304 303 304 305 305 305 305 303 301 300 296 292 289 284 280 275 272 270 269 269 269 267 267 272 273 263 255 252 248 245 247 248 249 253 254 254 254 248 243 240 238 238
296 294 293 291 290 289 288 288 288 288 288 290 291 293 295 297 299 300 300 300 301 301 302 304 305 303 303 304 303 302 299 293 288 285 282 278 273 269 267 266 265 265 264 263 264 267 265 260 255 246 243 248 251 250 253 255 253 252 247 242 240 239 239
295 293 292 291 288 286 284 283 283 284 285 287 289 291 293 296 297 297 297 298 300 301 302 305 306 304 303 304 303 300 296 290 287 285 281 276 272 268 265 264 263 261 260 259 258 259 260 260 256 248 245 249 253 254 255 256 256 253 246 240 239 241 241
294 293 293 291 289 286 283 282 282 283 285 287 289 291 293 295 295 295 297 298 300 302 304 307 307 305 303 301 301 300 295 290 285 282 279 274 269 267 265 263 262 259 256 256 255 255 256 256 254 250 250 250 252 255 256 257 258 254 242 236 238 240 240
293 293 293 293 291 290 288 288 287 287 288 289 291 292 293 294 295 297 299 300 302 304 305 306 305 303 302 302 303 303 299 294 286 281 279 274 267 265 265 264 263 260 256 254 254 255 254 253 252 251 251 251 251 253 253 253 255 250 239 233 234 235 235
295 294 294 294 293 293 292 292 292 292 293 293 294 295 295 296 298 300 302 303 306 308 308 307 305 303 303 305 308 308 304 298 291 284 279 274 268 266 265 264 263 261 259 256 255 257 257 257 256 251 248 248 248 249 250 250 247 241 235 233 230 230 231
296 295 294 294 293 292 292 292 292 293 294 295 297 297 297 299 301 302 304 306 309 311 311 309 307 306 306 308 311 311 306 300 295 289 282 273 269 267 264 262 261 259 259 259 256 255 255 257 256 247 244 247 248 248 249 245 236 232 231 230 228 228 230
295 295 294 293 293 292 292 292 292 293 294 295 298 298 299 301 303 303 304 307 310 311 310 309 307 308 309 310 312 311 307 302 296 291 284 275 269 267 263 259 258 258 258 258 254 250 248 251 252 248 246 246 244 243 242 234 227 225 226 226 228 230 231
294 294 294 293 292 291 291 291 292 293 294 295 297 299 299 301 301 301 303 306 308 309 308 307 307 308 308 310 312 311 307 301 293 287 282 276 270 267 262 257 255 254 252 252 250 248 245 245 249 251 248 243 237 235 236 230 223 223 225 227 230 229 229
293 293 293 292 291 290 289 290 291 292 293 294 295 296 297 298 298 298 300 304 307 306 306 306 306 307 308 310 311 310 305 299 291 285 281 277 272 267 262 257 253 249 246 246 248 248 245 243 246 249 247 243 239 235 235 232 226 224 226 229 232 230 230
292 292 291 290 289 288 288 289 289 290 291 292 294 295 296 296 295 296 298 302 304 304 305 305 306 308 309 310 312 309 304 297 290 285 281 277 271 265 260 255 250 246 244 246 248 248 246 244 243 243 243 243 241 236 234 232 231 230 230 230 232 231 231
291 291 290 289 287 287 287 287 288 289 290 292 293 294 295 295 294 295 298 301 303 303 304 305 306 308 309 311 312 310 305 297 288 282 279 273 266 261 259 253 247 242 242 244 247 249 248 244 241 240 241 242 240 237 235 235 237 238 235 229 226 228 232
290 290 289 288 286 285 285 285 286 287 288 291 292 293 294 294 295 296 298 300 302 303 304 305 306 308 309 311 313 313 308 298 285 279 275 268 261 258 258 254 246 241 241 242 244 246 246 245 242 240 241 241 239 238 238 238 238 237 235 230 227 232 236
289 288 287 285 285 284 284 284 285 286 288 290 291 292 293 294 295 297 299 300 301 302 303 305 306 307 309 311 313 314 310 299 286 278 272 265 259 256 256 255 249 242 239 239 239 242 244 243 242 242 242 242 239 239 239 238 236 235 234 233 233 236 237
287 286 285 284 284 283 283 284 285 286 288 289 291 292 293 294 296 297 298 299 301 301 302 304 306 307 308 310 311 312 311 302 289 278 269 264 260 257 256 255 247 239 235 237 237 238 240 240 241 244 243 239 237 238 237 236 237 236 235 236 237 237 237
286 285 284 283 283 283 283 284 285 286 288 290 291 292 293 294 295 297 298 299 299 300 302 304 305 307 308 309 309 311 311 304 291 280 272 266 261 257 258 256 247 238 235 235 235 236 238 239 241 242 238 235 236 238 236 236 238 238 236 238 240 239 240
285 284 284 283 282 282 282 283 285 286 288 290 291 292 293 294 295 295 296 298 299 300 302 303 304 305 308 309 309 312 313 305 291 281 275 268 260 256 257 254 247 241 237 234 233 235 236 237 239 239 237 236 236 237 238 238 238 237 237 240 242 241 241
285 285 284 283 282 282 282 283 285 287 288 290 291 292 292 293 294 295 296 298 299 300 302 303 303 304 307 310 310 312 313 307 292 281 275 269 261 256 256 252 244 240 238 235 233 234 233 233 235 237 237 237 236 238 241 241 240 239 239 241 241 240 241
287 286 285 283 283 282 283 284 285 286 288 289 290 291 291 292 293 294 295 297 299 300 302 303 303 304 307 309 311 312 312 308 294 282 276 271 264 258 256 252 245 240 238 237 235 235 233 232 232 233 233 236 238 240 241 241 241 241 240 240 241 240 240
288 287 286 285 284 284 284 284 285 286 286 287 288 289 290 291 292 293 294 296 298 299 301 303 303 304 305 307 309 310 311 308 296 283 276 272 267 262 257 253 248 243 238 236 236 234 233 232 231 231 232 237 240 239 239 240 241 241 241 241 241 240 239
288 287 286 285 284 284 284 284 285 285 286 286 287 288 289 290 291 292 293 295 297 298 300 301 303 304 304 306 307 308 309 308 298 285 278 274 269 266 261 254 250 245 237 235 236 236 235 234 232 231 232 236 238 238 239 241 241 242 243 241 240 240 239
289 288 287 286 286 285 285 285 285 285 286 287 287 288 289 289 290 291 292 293 295 296 298 299 301 302 303 303 305 305 307 308 301 287 279 276 272 268 261 252 247 245 239 237 238 239 239 235 231 230 229 231 237 239 239 240 241 244 245 243 242 242 241
290 290 289 288 288 287 287 286 286 286 287 287 288 289 289 289 290 290 291 293 294 295 296 297 298 299 299 299 301 303 305 307 302 290 279 274 272 270 262 251 246 245 242 239 239 241 242 238 231 229 229 230 237 241 238 237 239 242 244 243 243 244 243
291 291 290 289 289 288 288 287 287 287 287 288 288 289 289 289 290 290 291 292 293 294 295 295 296 297 296 296 297 299 301 304 302 292 281 273 270 268 262 254 248 244 238 236 237 241 244 241 233 231 230 231 236 239 238 237 239 240 241 243 243 244 243
292 291 290 289 288 288 287 287 287 287 287 288 288 288 289 289 289 290 290 291 292 293 293 294 294 294 294 293 292 294 297 300 300 294 284 275 268 263 258 253 247 240 233 231 233 237 241 242 238 235 233 231 231 234 235 237 240 242 243 243 242 240 239
291 290 290 289 289 288 288 287 287 286 286 287 287 287 288 288 289 289 290 290 291 292 292 292 293 293 292 290 289 290 292 294 296 294 286 277 270 262 255 250 246 240 234 231 231 233 237 242 242 239 237 234 232 232 234 236 238 240 242 243 242 238 236
290 289 289 288 288 288 288 287 287 286 286 286 286 286 287 287 287 288 288 289 289 290 290 291 291 290 290 288 286 285 287 289 291 292 289 280 272 264 255 248 243 240 236 233 231 232 234 238 241 242 242 242 239 235 233 235 235 235 236 238 239 238 238
290 289 288 288 287 287 287 286 286 285 285 285 285 284 284 285 285 285 285 286 286 287 288 288 288 288 287 285 283 281 282 284 285 286 287 282 273 264 255 247 242 239 236 235 234 235 236 236 237 241 243 244 243 241 238 237 236 235 235 236 235 236 238
291 291 290 289 289 288 287 286 286 285 284 284 284 283 283 282 282 282 282 282 283 284 284 285 285 285 284 283 281 278 277 279 280 280 281 280 274 266 258 251 246 243 241 238 236 237 239 238 237 239 242 242 243 244 244 242 241 240 238 237 235 235 237
293 292 292 291 290 290 289 288 287 286 285 284 283 283 282 281 280 280 280 280 280 280 281 282 282 282 281 280 278 275 273 274 276 276 275 275 274 269 262 255 251 249 246 242 237 236 238 240 240 240 241 241 241 243 243 243 244 244 240 237 239 242 243
294 294 293 293 292 291 291 290 288 287 286 285 284 283 282 281 280 279 278 277 277 277 278 279 280 280 280 278 276 273 270 269 271 272 271 270 269 268 265 260 254 251 249 245 240 237 237 239 242 242 242 241 241 241 241 242 245 247 244 241 242 244 247
295 295 294 294 294 293 292 291 290 289 287 286 285 284 283 281 280 279 277 276 276 275 275 276 277 278 278 277 275 272 268 266 266 268 268 266 265 264 264 261 257 253 250 247 243 241 239 239 241 242 243 243 243 242 243 243 243 247 249 248 246 246 247
297 296 296 296 295 295 294 293 292 290 289 287 286 285 283 282 280 279 278 276 275 274 274 274 275 275 276 276 274 271 268 265 263 263 264 263 262 261 260 259 257 254 251 248 246 245 243 241 241 242 243 243 243 242 243 243 242 244 246 247 245 243 241
299 299 299 299 299 298 297 296 294 293 291 289 288 286 284 282 281 279 278 276 275 274 273 273 274 274 274 275 273 271 267 264 261 260 260 260 259 259 257 256 255 255 253 250 247 246 245 243 242 242 242 244 244 243 243 242 241 240 240 241 242 241 239
303 304 304 305 305 305 304 303 301 300 297 295 292 290 287 285 282 280 278 276 275 273 272 272 272 273 273 273 273 270 267 263 260 258 258 257 257 256 256 254 253 253 252 250 248 246 245 244 243 242 242 244 244 245 244 241 240 240 241 242 244 245 244
310 312 313 314 315 315 315 314 313 311 308 304 300 296 293 290 287 284 281 278 276 273 272 270 270 270 271 271 271 270 266 262 259 257 256 256 255 253 253 253 251 249 249 249 248 246 244 242 241 241 243 245 245 246 245 244 241 241 242 243 244 245 245
319 321 322 324 324 326 326 326 326 324 321 317 311 305 300 296 292 289 285 282 279 276 273 271 269 268 269 269 269 268 265 261 258 255 254 254 254 253 250 250 250 248 246 246 247 246 245 243 240 238 239 242 245 247 248 247 244 243 244 244 244 244 244
Height
5818 5817 5816 5815 5814 5813 5812 5812 5811 5810 5810 5809 5808 5807 5806 5805 5804 5804 5802 5800 5799 5799 5797 5796 5796 5794 5793 5792 5791 5791 5791 5791 5790 5788 5787 5786 5786 5786 5785 5785 5784 5783 5783 5783 5783 5783 5783 5784 5785 5786 5786 5787 5788 5789 5790 5791 5791 5791 5792 5793 5794 5795 5795
5816 5815 5814 5813 5813 5812 5811 5810 5809 5809 5808 5807 5806 5805 5804 5802 5801 5801 5800 5798 5797 5796 5794 5793 5792 5791 5790 5789 5788 5787 5787 5787 5785 5784 5783 5782 5782 5782 5782 5781 5781 5780 5779 5779 5779 5780 5780 5781 5781 5782 5782 5783 5784 5785 5786 5787 5787 5788 5789 5790 5791 5791 5792
5813 5813 5812 5812 5811 5810 5809 5808 5808 5807 5806 5805 5803 5802 5801 5800 5799 5798 5797 5795 5794 5792 5791 5789 5787 5786 5786 5785 5785 5784 5783 5783 5782 5781 5780 5778 5778 5778 5778 5778 5777 5776 5776 5776 5776 5777 5777 5777 5778 5778 5779 5780 5781 5781 5782 5783 5784 5784 5786 5787 5788 5789 5790
5810 5810 5809 5809 5809 5808 5807 5806 5805 5804 5803 5802 5800 5799 5798 5797 5796 5795 5794 5793 5790 5789 5787 5785 5784 5782 5782 5781 5781 5781 5779 5778 5777 5776 5775 5775 5774 5774 5774 5774 5773 5773 5773 5773 5773 5773 5774 5774 5775 5775 5775 5776 5777 5778 5779 5780 5780 5781 5782 5784 5785 5786 5787
5807 5806 5806 5805 5805 5804 5803 5803 5802 5801 5800 5799 5798 5796 5795 5794 5793 5792 5790 5789 5787 5786 5784 5783 5781 5779 5778 5777 5777 5776 5775 5774 5773 5771 5771 5771 5770 5769 5770 5770 5770 5770 5770 5770 5770 5770 5770 5771 5771 5771 5771 5772 5773 5774 5775 5776 5776 5777 5779 5780 5782 5783 5784
5803 5803 5802 5801 5800 5800 5799 5798 5797 5797 5796 5795 5794 5793 5792 5791 5789 5788 5786 5785 5784 5783 5782 5780 5779 5777 5775 5774 5773 5772 5771 5770 5769 5768 5767 5767 5766 5766 5766 5766 5765 5765 5766 5766 5767 5767 5767 5767 5767 5767 5768 5768 5769 5770 5771 5772 5773 5774 5775 5776 5778 5780 5781
5800 5799 5798 5797 5797 5796 5795 5794 5794 5793 5792 5791 5790 5789 5787 5786 5785 5783 5782 5781 5780 5779 5778 5777 5775 5774 5772 5770 5769 5768 5765 5764 5763 5763 5762 5761 5761 5761 5762 5762 5761 5761 5761 5762 5763 5763 5763 5764 5763 5763 5764 5764 5765 5766 5767 5769 5770 5771 5772 5773 5775 5777 5778
5797 5796 5795 5794 5793 5792 5791 5790 5789 5788 5787 5786 5786 5784 5782 5781 5780 5779 5777 5776 5776 5775 5774 5773 5771 5770 5769 5767 5765 5764 5761 5758 5758 5758 5757 5756 5756 5757 5757 5757 5757 5758 5758 5758 5759 5760 5760 5761 5760 5760 5760 5761 5761 5762 5764 5765 5766 5767 5769 5770 5772 5774 5775
5795 5793 5792 5790 5789 5788 5787 5786 5785 5784 5782 5781 5781 5780 5778 5777 5776 5775 5774 5773 5772 5771 5770 5769 5767 5766 5765 5763 5761 5759 5756 5753 5752 5752 5751 5751 5751 5752 5752 5753 5753 5754 5754 5755 5755 5756 5757 5757 5757 5757 5758 5758 5758 5760 5761 5763 5764 5765 5766 5768 5770 5771 5772
5791 5790 5789 5787 5786 5785 5784 5782 5781 5780 5779 5777 5776 5775 5774 5773 5773 5771 5770 5770 5769 5767 5766 5764 5763 5762 5761 5759 5757 5754 5752 5749 5746 5746 5747 5746 5747 5747 5747 5748 5749 5749 5750 5751 5752 5752 5753 5754 5754 5754 5755 5755 5756 5757 5758 5760 5761 5762 5764 5765 5766 5768 5769
5788 5787 5786 5784 5783 5781 5780 5779 5777 5776 5775 5774 5772 5771 5770 5769 5768 5767 5767 5766 5765 5764 5762 5760 5759 5757 5756 5754 5752 5749 5746 5744 5742 5741 5742 5742 5742 5742 5743 5744 5745 5745 5746 5747 5748 5749 5750 5751 5751 5751 5752 5752 5753 5754 5755 5756 5758 5760 5761 5763 5764 5765 5766
5784 5783 5782 5780 5779 5778 5776 5775 5774 5772 5771 5770 5768 5767 5766 5765 5764 5763 5763 5762 5761 5760 5758 5757 5755 5753 5752 5750 5747 5744 5740 5739 5737 5736 5737 5737 5736 5737 5738 5739 5740 5741 5742 5743 5745 5746 5747 5747 5748 5748 5749 5750 5750 5751 5752 5754 5755 5757 5759 5760 5761 5762 5763
5780 5779 5778 5777 5775 5774 5773 5771 5770 5769 5767 5766 5764 5763 5762 5761 5760 5759 5758 5758 5757 5756 5755 5753 5751 5749 5747 5745 5743 5739 5736 5734 5733 5731 5731 5731 5731 5731 5733 5734 5736 5737 5737 5739 5741 5742 5742 5743 5743 5744 5745 5746 5748 5749 5750 5751 5752 5754 5755 5756 5757 5758 5760
5776 5775 5774 5772 5771 5770 5769 5767 5766 5764 5763 5762 5761 5759 5758 5757 5756 5755 5754 5753 5753 5752 5751 5749 5747 5745 5744 5741 5739 5736 5732 5730 5728 5727 5726 5726 5726 5727 5728 5730 5731 5733 5733 5735 5736 5737 5738 5739 5739 5740 5741 5743 5745 5746 5747 5748 5749 5750 5752 5753 5754 5755 5756
5772 5771 5769 5768 5767 5765 5765 5763 5762 5760 5759 5758 5756 5755 5754 5753 5752 5751 5750 5749 5749 5748 5746 5745 5743 5741 5740 5738 5735 5732 5729 5727 5725 5723 5722 5722 5723 5724 5725 5725 5727 5728 5730 5731 5732 5733 5734 5736 5737 5737 5738 5740 5741 5743 5744 5745 5746 5747 5749 5749 5750 5751 5753
5767 5766 5765 5764 5762 5761 5760 5759 5758 5756 5755 5754 5752 5751 5750 5749 5747 5746 5745 5745 5745 5744 5742 5741 5739 5737 5736 5734 5732 5729 5726 5723 5721 5720 5719 5719 5720 5720 5721 5722 5723 5724 5726 5727 5728 5729 5731 5732 5733 5733 5734 5736 5738 5739 5741 5742 5744 5745 5745 5746 5747 5749 5750
5763 5762 5761 5759 5758 5757 5756 5755 5753 5752 5751 5749 5748 5747 5745 5744 5743 5742 5741 5740 5740 5739 5738 5737 5735 5733 5732 5730 5727 5725 5723 5720 5718 5717 5716 5716 5716 5716 5717 5718 5719 5721 5722 5722 5723 5725 5727 5728 5728 5728 5729 5732 5734 5735 5737 5739 5740 5741 5742 5743 5745 5746 5747
5759 5758 5756 5755 5754 5753 5751 5750 5749 5748 5746 5745 5744 5742 5741 5739 5738 5737 5736 5735 5734 5734 5733 5733 5731 5729 5727 5726 5723 5721 5719 5716 5714 5713 5713 5713 5713 5712 5712 5714 5716 5717 5718 5719 5720 5721 5721 5722 5722 5723 5725 5728 5730 5731 5733 5734 5736 5737 5738 5739 5741 5742 5743
5754 5753 5752 5750 5749 5748 5746 5745 5744 5743 5742 5740 5739 5738 5736 5735 5733 5732 5731 5730 5729 5729 5728 5727 5726 5725 5723 5721 5719 5717 5715 5712 5710 5709 5709 5709 5709 5709 5708 5709 5712 5714 5715 5715 5716 5717 5717 5716 5717 5719 5722 5724 5725 5727 5729 5730 5731 5733 5734 5736 5737 5739 5740
5749 5748 5747 5746 5744 5743 5742 5740 5739 5738 5737 5735 5734 5733 5732 5730 5728 5727 5726 5725 5724 5724 5723 5723 5722 5720 5719 5717 5715 5713 5711 5709 5706 5705 5705 5705 5705 5705 5705 5706 5708 5710 5711 5711 5711 5712 5712 5712 5714 5716 5719 5720 5721 5722 5724 5726 5727 5728 5730 5732 5734 5735 5736
5744 5743 5742 5741 5740 5738 5737 5736 5734 5733 5732 5730 5729 5728 5727 5726 5724 5722 5721 5720 5720 5719 5718 5718 5717 5716 5714 5713 5711 5709 5707 5705 5703 5701 5701 5702 5701 5701 5701 5703 5704 5705 5707 5707 5707 5707 5707 5708 5711 5713 5714 5716 5717 5718 5720 5721 5723 5725 5726 5728 5730 5731 5732
5740 5738 5737 5736 5735 5734 5732 5731 5729 5728 5727 5725 5724 5723 5722 5721 5719 5718 5716 5715 5714 5714 5713 5713 5713 5712 5711 5708 5707 5705 5703 5702 5700 5698 5697 5698 5698 5697 5698 5699 5700 5702 5703 5703 5703 5703 5703 5705 5707 5708 5709 5711 5712 5714 5715 5717 5719 5720 5722 5724 5725 5727 5728
5735 5734 5733 5731 5730 5729 5727 5726 5724 5723 5721 5720 5719 5718 5716 5715 5714 5713 5711 5710 5709 5708 5708 5708 5707 5707 5707 5705 5703 5701 5700 5698 5696 5695 5694 5693 5693 5694 5694 5695 5696 5698 5699 5700 5700 5700 5700 5701 5703 5703 5704 5706 5707 5709 5711 5713 5714 5716 5717 5719 5720 5722 5724
5731 5729 5728 5727 5725 5724 5722 5721 5719 5718 5716 5715 5714 5712 5711 5710 5709 5707 5706 5705 5704 5703 5703 5703 5702 5702 5702 5701 5699 5697 5696 5695 5693 5691 5690 5690 5690 5690 5689 5690 5692 5693 5695 5696 5696 5696 5696 5697 5699 5699 5700 5702 5703 5705 5707 5709 5710 5712 5713 5714 5716 5717 5719
5726 5724 5723 5722 5720 5719 5717 5716 5715 5713 5712 5710 5709 5707 5706 5705 5703 5702 5700 5699 5699 5698 5697 5697 5697 5697 5697 5696 5695 5693 5692 5690 5689 5688 5686 5685 5685 5685 5685 5686 5687 5689 5690 5691 5692 5692 5692 5693 5695 5696 5697 5698 5699 5701 5703 5705 5706 5707 5708 5709 5711 5713 5714
5721 5720 5718 5717 5715 5714 5713 5711 5710 5708 5706 5705 5704 5702 5700 5699 5698 5696 5695 5693 5693 5692 5691 5691 5691 5691 5691 5691 5690 5688 5687 5686 5685 5683 5682 5681 5681 5681 5681 5682 5683 5684 5686 5687 5688 5689 5689 5689 5690 5692 5693 5694 5695 5697 5699 5700 5701 5703 5704 5705 5706 5708 5709
5716 5714 5713 5712 5710 5708 5707 5706 5705 5703 5701 5699 5698 5697 5695 5693 5692 5691 5689 5688 5687 5686 5685 5684 5685 5685 5685 5685 5685 5683 5682 5681 5680 5679 5678 5677 5677 5677 5677 5678 5679 5679 5681 5682 5684 5685 5686 5686 5686 5687 5689 5690 5691 5691 5692 5694 5696 5698 5699 5700 5701 5703 5705
5711 5709 5707 5706 5704 5703 5701 5700 5699 5697 5695 5693 5692 5691 5689 5687 5686 5685 5683 5682 5680 5679 5679 5678 5678 5679 5679 5679 5679 5678 5677 5676 5675 5675 5674 5673 5673 5673 5673 5674 5674 5675 5677 5678 5679 5680 5681 5682 5682 5683 5684 5686 5687 5686 5687 5689 5691 5692 5694 5695 5697 5699 5700
5705 5703 5701 5700 5698 5697 5695 5693 5692 5690 5689 5687 5685 5684 5682 5681 5680 5679 5677 5676 5674 5673 5672 5671 5671 5672 5672 5673 5673 5673 5672 5671 5670 5670 5670 5669 5669 5668 5669 5670 5670 5671 5673 5674 5674 5675 5676 5677 5678 5678 5679 5681 5682 5682 5683 5685 5687 5688 5689 5691 5693 5695 5696
5699 5697 5695 5694 5692 5690 5688 5687 5685 5683 5682 5680 5678 5677 5675 5673 5672 5671 5670 5669 5668 5666 5665 5664 5664 5664 5665 5666 5666 5666 5666 5665 5665 5665 5665 5664 5664 5664 5664 5664 5665 5667 5668 5669 5670 5670 5671 5672 5673 5674 5675 5676 5677 5678 5679 5681 5682 5683 5685 5687 5689 5690 5691
5694 5691 5689 5688 5686 5684 5682 5680 5678 5676 5674 5672 5670 5669 5667 5665 5664 5663 5662 5661 5660 5659 5658 5657 5657 5656 5657 5658 5659 5660 5660 5659 5659 5659 5659 5659 5659 5659 5659 5659 5660 5661 5662 5663 5664 5665 5666 5667 5668 5669 5670 5671 5672 5673 5674 5676 5678 5679 5680 5683 5685 5686 5687
5688 5686 5684 5682 5680 5677 5675 5673 5670 5668 5666 5664 5662 5660 5658 5657 5655 5654 5653 5652 5652 5651 5650 5649 5649 5648 5648 5649 5651 5652 5653 5653 5652 5652 5652 5653 5653 5653 5654 5654 5654 5655 5656 5657 5658 5659 5660 5662 5663 5664 5665 5667 5668 5669 5671 5673 5675 5675 5676 5679 5680 5682 5684
5684 5681 5679 5676 5674 5671 5668 5666 5663 5660 5658 5656 5654 5651 5649 5647 5646 5645 5643 5642 5643 5642 5641 5640 5640 5640 5640 5641 5642 5643 5645 5645 5645 5646 5646 5646 5647 5647 5648 5648 5649 5649 5650 5651 5652 5653 5654 5656 5657 5659 5661 5662 5663 5665 5667 5669 5671 5672 5673 5673 5674 5677 5679
5678 5676 5673 5671 5668 5665 5662 5659 5656 5653 5650 5647 5645 5642 5640 5637 5636 5635 5633 5632 5632 5632 5632 5631 5630 5630 5631 5632 5633 5634 5636 5637 5638 5638 5639 5639 5640 5640 5641 5642 5643 5644 5644 5645 5646 5647 5648 5650 5652 5654 5656 5656 5657 5660 5662 5664 5664 5666 5668 5668 5669 5671 5673
5674 5671 5668 5665 5662 5659 5656 5653 5649 5646 5642 5639 5636 5633 5630 5628 5626 5624 5623 5622 5621 5621 5621 5621 5621 5621 5621 5622 5623 5625 5627 5628 5629 5630 5631 5632 5632 5633 5634 5636 5637 5638 5638 5639 5640 5641 5642 5644 5646 5648 5649 5650 5652 5655 5657 5658 5659 5661 5663 5664 5665 5666 5668
5669 5667 5664 5661 5658 5654 5651 5648 5644 5640 5636 5632 5629 5626 5623 5619 5616 5614 5612 5611 5610 5610 5610 5611 5611 5611 5611 5612 5613 5615 5617 5619 5620 5621 5622 5623 5624 5626 5627 5629 5630 5632 5633 5633 5634 5635 5636 5638 5640 5642 5643 5645 5647 5648 5650 5652 5654 5656 5657 5658 5660 5661 5662
5666 5663 5660 5657 5654 5651 5647 5643 5640 5636 5632 5627 5623 5619 5616 5612 5609 5606 5603 5602 5600 5600 5599 5599 5600 5600 5601 5602 5603 5605 5607 5609 5611 5612 5613 5614 5616 5617 5619 5621 5623 5625 5626 5627 5628 5629 5630 5632 5634 5636 5637 5639 5641 5642 5643 5645 5647 5649 5650 5652 5654 5655 5656